QPF
0.00 0.00 0.00 0.00 0.01 0.04 0.05 0.05 0.04 0.02 0.00 0.01 0.05 0.16 0.16 0.11 0.05 0.02 0.00 0.00 0.00 0.00 0.00 0.00 0.00 0.00 0.00 0.00 0.01 0.00 0.02 0.02 0.14 0.17 0.09 0.02 0.00 0.00 0.00 0.00 0.00 0.00 0.00 0.00
0.00 0.00 0.00 0.00 0.00 0.00 0.00 0.00 0.00 0.00 0.00 0.01 0.04 0.15 0.14 0.09 0.13 0.12 0.08 0.03 0.01 0.00 0.00 0.00 0.00 0.00 0.00 0.00 0.00 0.02 0.02 0.01 0.03 0.16 0.12 0.04 0.01 0.00 0.00 0.00 0.00 0.00 0.00 0.00
0.00 0.00 0.00 0.00 0.00 0.00 0.00 0.00 0.00 0.00 0.00 0.00 0.00 0.06 0.07 0.05 0.06 0.08 0.09 0.09 0.05 0.02 0.00 0.00 0.00 0.00 0.00 0.00 0.00 0.00 0.01 0.02 0.01 0.05 0.15 0.07 0.02 0.01 0.00 0.00 0.00 0.00 0.00 0.00
0.00 0.00 0.00 0.00 0.00 0.00 0.00 0.00 0.00 0.00 0.00 0.00 0.00 0.02 0.01 0.01 0.01 0.02 0.04 0.06 0.07 0.06 0.03 0.00 0.00 0.00 0.00 0.00 0.00 0.00 0.00 0.01 0.02 0.03 0.09 0.19 0.08 0.01 0.00 0.00 0.00 0.00 0.00 0.00
0.00 0.00 0.00 0.00 0.00 0.00 0.00 0.00 0.00 0.00 0.00 0.00 0.00 0.00 0.02 0.00 0.00 0.01 0.02 0.03 0.02 0.03 0.04 0.02 0.01 0.00 0.00 0.00 0.00 0.00 0.00 0.00 0.01 0.03 0.08 0.11 0.19 0.05 0.00 0.00 0.00 0.00 0.00 0.00
0.00 0.00 0.00 0.00 0.00 0.00 0.00 0.00 0.00 0.00 0.00 0.00 0.00 0.00 0.01 0.01 0.01 0.00 0.00 0.02 0.03 0.04 0.02 0.01 0.01 0.00 0.00 0.00 0.00 0.00 0.00 0.00 0.00 0.01 0.08 0.11 0.11 0.16 0.02 0.00 0.00 0.00 0.00 0.00
0.00 0.00 0.00 0.00 0.00 0.00 0.00 0.00 0.00 0.00 0.00 0.02 0.04 0.03 0.05 0.03 0.02 0.01 0.01 0.00 0.00 0.01 0.02 0.03 0.02 0.02 0.01 0.00 0.00 0.00 0.00 0.00 0.00 0.00 0.03 0.09 0.16 0.09 0.08 0.01 0.00 0.00 0.00 0.00
0.00 0.00 0.00 0.00 0.00 0.00 0.00 0.00 0.02 0.04 0.01 0.00 0.00 0.01 0.02 0.02 0.02 0.01 0.01 0.00 0.00 0.00 0.00 0.00 0.01 0.02 0.02 0.01 0.00 0.00 0.00 0.00 0.00 0.00 0.02 0.09 0.14 0.18 0.08 0.05 0.02 0.00 0.00 0.00
0.00 0.00 0.00 0.00 0.00 0.01 0.00 0.02 0.02 0.05 0.00 0.00 0.01 0.01 0.01 0.00 0.00 0.00 0.00 0.00 0.00 0.00 0.00 0.00 0.00 0.00 0.01 0.01 0.01 0.01 0.01 0.00 0.00 0.00 0.00 0.03 0.12 0.20 0.17 0.07 0.04 0.02 0.00 0.00
0.00 0.00 0.00 0.00 0.00 0.00 0.01 0.02 0.00 0.00 0.00 0.00 0.00 0.00 0.00 0.00 0.00 0.00 0.00 0.00 0.00 0.00 0.00 0.00 0.00 0.01 0.01 0.01 0.01 0.01 0.01 0.01 0.02 0.01 0.01 0.01 0.03 0.16 0.28 0.13 0.06 0.04 0.02 0.00
0.00 0.00 0.00 0.00 0.00 0.00 0.00 0.00 0.00 0.00 0.00 0.01 0.01 0.00 0.00 0.00 0.00 0.00 0.00 0.00 0.00 0.00 0.00 0.00 0.00 0.01 0.01 0.01 0.01 0.01 0.01 0.01 0.01 0.02 0.03 0.02 0.02 0.04 0.14 0.27 0.11 0.06 0.06 0.02
0.00 0.01 0.00 0.00 0.00 0.00 0.00 0.00 0.00 0.00 0.00 0.00 0.01 0.01 0.00 0.00 0.00 0.00 0.00 0.00 0.00 0.00 0.00 0.00 0.00 0.00 0.01 0.01 0.01 0.01 0.02 0.02 0.03 0.04 0.04 0.06 0.04 0.05 0.07 0.14 0.20 0.08 0.08 0.11
0.01 0.00 0.01 0.01 0.03 0.00 0.00 0.00 0.00 0.00 0.01 0.00 0.00 0.00 0.00 0.00 0.00 0.00 0.00 0.00 0.00 0.00 0.00 0.00 0.00 0.00 0.00 0.01 0.02 0.02 0.02 0.03 0.04 0.04 0.05 0.06 0.07 0.07 0.08 0.12 0.14 0.13 0.10 0.15
0.00 0.01 0.01 0.01 0.01 0.00 0.00 0.00 0.00 0.00 0.01 0.00 0.00 0.00 0.00 0.00 0.00 0.00 0.00 0.00 0.00 0.00 0.00 0.00 0.01 0.01 0.01 0.01 0.02 0.03 0.03 0.04 0.04 0.05 0.05 0.05 0.07 0.10 0.13 0.13 0.12 0.13 0.08 0.10
0.00 0.00 0.00 0.00 0.00 0.00 0.00 0.00 0.00 0.00 0.00 0.00 0.00 0.00 0.00 0.00 0.00 0.00 0.00 0.00 0.00 0.00 0.00 0.00 0.00 0.00 0.01 0.01 0.01 0.02 0.02 0.03 0.04 0.06 0.05 0.06 0.08 0.09 0.11 0.15 0.15 0.13 0.12 0.10
0.00 0.00 0.00 0.00 0.00 0.00 0.00 0.00 0.00 0.00 0.00 0.00 0.00 0.00 0.00 0.00 0.00 0.00 0.00 0.00 0.00 0.00 0.00 0.00 0.00 0.00 0.00 0.00 0.01 0.02 0.02 0.03 0.04 0.05 0.07 0.08 0.08 0.09 0.09 0.12 0.16 0.16 0.15 0.14
0.00 0.00 0.00 0.00 0.00 0.00 0.00 0.00 0.00 0.00 0.00 0.00 0.00 0.00 0.00 0.00 0.00 0.00 0.00 0.00 0.00 0.00 0.00 0.00 0.00 0.00 0.00 0.00 0.00 0.01 0.02 0.03 0.03 0.05 0.06 0.07 0.08 0.09 0.10 0.12 0.12 0.14 0.18 0.19
0.00 0.00 0.00 0.00 0.00 0.00 0.00 0.00 0.00 0.00 0.00 0.00 0.00 0.00 0.00 0.00 0.00 0.00 0.00 0.00 0.00 0.00 0.00 0.00 0.00 0.00 0.00 0.00 0.00 0.00 0.01 0.02 0.02 0.04 0.05 0.06 0.07 0.10 0.10 0.11 0.13 0.13 0.16 0.19
0.00 0.00 0.00 0.00 0.00 0.00 0.00 0.00 0.00 0.00 0.00 0.00 0.00 0.00 0.00 0.00 0.00 0.00 0.00 0.00 0.00 0.00 0.00 0.00 0.00 0.00 0.00 0.00 0.00 0.00 0.00 0.00 0.01 0.02 0.03 0.05 0.06 0.08 0.10 0.10 0.13 0.15 0.15 0.16
0.00 0.00 0.00 0.00 0.00 0.00 0.00 0.00 0.00 0.00 0.00 0.00 0.00 0.00 0.00 0.00 0.00 0.00 0.00 0.00 0.00 0.00 0.00 0.00 0.00 0.00 0.00 0.00 0.00 0.00 0.00 0.00 0.00 0.01 0.02 0.04 0.06 0.07 0.08 0.10 0.12 0.14 0.15 0.17
0.00 0.00 0.00 0.00 0.00 0.00 0.00 0.00 0.00 0.00 0.00 0.00 0.00 0.00 0.00 0.00 0.00 0.00 0.00 0.00 0.00 0.00 0.00 0.00 0.00 0.00 0.00 0.00 0.00 0.00 0.00 0.00 0.00 0.00 0.00 0.02 0.04 0.05 0.07 0.08 0.10 0.12 0.13 0.14
0.00 0.00 0.00 0.00 0.00 0.00 0.00 0.00 0.00 0.00 0.00 0.00 0.00 0.00 0.00 0.00 0.00 0.00 0.00 0.00 0.00 0.00 0.00 0.00 0.00 0.00 0.00 0.00 0.00 0.00 0.00 0.00 0.00 0.00 0.00 0.00 0.02 0.04 0.05 0.07 0.08 0.09 0.10 0.11
0.00 0.00 0.00 0.00 0.00 0.00 0.00 0.00 0.00 0.00 0.00 0.00 0.00 0.00 0.00 0.00 0.00 0.00 0.00 0.00 0.00 0.00 0.00 0.00 0.00 0.00 0.00 0.00 0.00 0.00 0.00 0.00 0.00 0.00 0.00 0.00 0.00 0.01 0.03 0.04 0.05 0.07 0.08 0.09
0.00 0.00 0.00 0.00 0.00 0.00 0.00 0.00 0.00 0.00 0.00 0.00 0.00 0.00 0.00 0.00 0.00 0.00 0.00 0.00 0.00 0.00 0.00 0.00 0.00 0.00 0.00 0.00 0.00 0.00 0.00 0.00 0.00 0.00 0.00 0.00 0.00 0.00 0.00 0.02 0.02 0.04 0.05 0.07
0.00 0.00 0.00 0.00 0.00 0.00 0.00 0.00 0.00 0.00 0.00 0.00 0.00 0.00 0.00 0.00 0.00 0.00 0.00 0.00 0.00 0.00 0.00 0.00 0.00 0.00 0.00 0.00 0.00 0.00 0.00 0.00 0.00 0.00 0.00 0.00 0.00 0.00 0.00 0.00 0.01 0.03 0.03 0.07
0.00 0.00 0.00 0.00 0.00 0.00 0.00 0.00 0.00 0.00 0.00 0.00 0.00 0.00 0.00 0.00 0.00 0.00 0.00 0.00 0.00 0.00 0.00 0.00 0.00 0.00 0.00 0.00 0.00 0.00 0.00 0.00 0.00 0.00 0.00 0.00 0.00 0.00 0.00 0.00 0.00 0.00 0.01 0.02
MSLP
1013.22 1013.57 1014.89 1015.21 1015.44 1015.74 1015.90 1015.64 1015.23 1014.74 1014.62 1015.63 1017.35 1019.70 1021.70 1023.04 1023.23 1023.80 1024.07 1024.32 1024.30 1023.73 1023.37 1022.33 1021.31 1020.20 1019.19 1018.01 1016.74 1015.63 1014.67 1014.15 1013.19 1012.40 1010.79 1009.85 1010.11 1010.68 1011.32 1011.56 1011.80 1011.95 1012.30 1012.67
1015.26 1015.68 1015.83 1015.79 1016.06 1016.44 1016.71 1016.80 1016.36 1015.47 1015.54 1015.96 1018.45 1020.79 1023.00 1023.79 1024.83 1025.72 1025.82 1025.84 1025.64 1024.92 1023.96 1023.10 1022.23 1021.13 1020.24 1019.48 1018.23 1016.83 1016.47 1015.28 1014.57 1013.97 1012.70 1011.62 1009.80 1010.04 1010.74 1011.46 1011.89 1012.10 1012.38 1012.64
1016.60 1016.88 1016.21 1016.16 1016.56 1016.77 1017.18 1017.24 1016.88 1016.59 1016.07 1016.37 1017.76 1020.83 1023.08 1024.75 1025.89 1026.50 1026.86 1027.48 1026.80 1026.27 1025.51 1024.44 1023.41 1022.51 1021.57 1020.36 1019.34 1018.16 1017.30 1016.58 1015.36 1014.68 1013.22 1011.67 1009.81 1009.69 1010.59 1011.38 1011.76 1012.12 1012.45 1012.64
1017.55 1017.28 1016.79 1016.80 1017.37 1017.71 1017.65 1017.28 1017.13 1016.91 1017.00 1017.41 1017.93 1020.58 1023.86 1025.55 1026.59 1027.44 1028.06 1028.00 1027.80 1027.36 1026.72 1025.83 1024.54 1023.27 1022.50 1021.71 1020.47 1019.23 1018.41 1016.81 1016.32 1015.63 1013.90 1013.53 1012.41 1009.72 1009.61 1010.22 1011.20 1011.87 1012.24 1012.50
1019.24 1018.34 1017.69 1017.70 1018.10 1018.02 1017.78 1017.31 1017.37 1017.25 1017.31 1017.97 1018.80 1021.17 1024.87 1026.38 1027.99 1029.00 1029.60 1029.56 1029.17 1028.70 1027.94 1026.86 1025.80 1024.92 1024.12 1022.65 1021.38 1020.14 1018.83 1017.99 1017.29 1016.43 1015.30 1014.15 1012.36 1010.63 1009.27 1009.74 1010.87 1011.65 1012.10 1012.31
1019.63 1018.93 1018.58 1018.34 1018.43 1017.94 1017.69 1017.57 1017.39 1017.16 1017.64 1019.34 1020.55 1023.00 1026.99 1028.72 1030.57 1030.87 1030.99 1030.79 1030.47 1029.78 1028.80 1027.80 1026.62 1025.88 1024.98 1023.91 1022.81 1021.70 1020.71 1019.75 1018.63 1017.35 1016.38 1014.90 1013.73 1012.35 1010.22 1009.49 1010.46 1011.26 1011.92 1012.31
1021.13 1020.40 1019.56 1019.18 1019.15 1018.13 1018.10 1018.47 1018.81 1018.95 1019.44 1021.03 1022.36 1024.62 1028.97 1030.54 1031.54 1032.05 1032.14 1032.04 1031.51 1030.66 1029.86 1029.21 1028.05 1026.79 1025.82 1024.92 1023.77 1022.75 1021.85 1020.34 1019.29 1018.29 1016.95 1015.85 1014.08 1013.39 1011.41 1009.60 1009.31 1010.55 1011.53 1012.15
1022.66 1021.38 1020.86 1020.04 1020.16 1019.70 1019.02 1019.44 1020.42 1020.77 1021.47 1022.79 1024.26 1027.98 1030.62 1031.79 1032.53 1032.84 1032.88 1032.79 1032.43 1032.17 1031.49 1030.28 1029.11 1028.37 1027.70 1026.95 1025.09 1024.51 1023.53 1021.58 1020.12 1018.73 1017.36 1016.66 1015.21 1013.64 1012.21 1010.35 1009.36 1009.12 1009.96 1010.66
1024.41 1023.12 1021.70 1020.77 1020.20 1020.21 1020.10 1020.51 1020.93 1021.39 1022.61 1024.33 1027.56 1030.13 1031.69 1032.49 1033.30 1033.69 1033.70 1033.49 1033.18 1032.50 1031.56 1031.11 1030.58 1030.04 1029.33 1028.18 1026.63 1026.37 1025.16 1022.87 1021.67 1020.52 1019.06 1017.16 1015.82 1014.34 1012.70 1011.30 1009.72 1009.51 1009.55 1010.29
1025.21 1024.12 1022.57 1021.48 1021.02 1021.42 1021.89 1023.03 1022.97 1023.86 1025.20 1026.82 1028.79 1031.00 1032.50 1033.73 1034.60 1034.89 1034.81 1034.56 1034.22 1033.75 1033.15 1032.39 1031.71 1031.06 1030.21 1029.28 1027.96 1026.95 1025.54 1024.04 1022.85 1021.45 1020.17 1018.71 1017.16 1015.13 1013.99 1011.37 1010.20 1009.36 1009.91 1010.07
1025.87 1025.95 1024.23 1023.11 1024.12 1024.55 1024.46 1025.76 1026.43 1026.71 1027.33 1028.56 1030.61 1032.73 1034.67 1035.78 1036.27 1036.32 1036.21 1035.77 1035.18 1034.53 1033.87 1033.28 1032.58 1031.71 1030.81 1029.70 1028.59 1027.84 1026.34 1024.94 1023.63 1022.23 1020.73 1019.25 1017.61 1015.77 1014.06 1011.93 1011.40 1009.92 1009.77 1009.90
1026.74 1026.53 1026.34 1025.75 1026.34 1026.52 1027.28 1028.70 1029.31 1029.87 1029.90 1030.71 1032.28 1034.45 1036.34 1037.06 1037.44 1037.57 1037.39 1036.82 1036.07 1035.37 1034.62 1033.85 1033.11 1032.46 1031.66 1030.60 1029.83 1029.00 1027.41 1026.08 1024.97 1023.30 1021.76 1019.95 1018.19 1016.46 1014.91 1013.48 1012.24 1010.61 1010.37 1010.43
1027.75 1027.80 1028.15 1027.50 1027.94 1027.76 1028.98 1030.48 1031.17 1031.36 1031.78 1032.93 1034.61 1035.87 1037.12 1038.15 1038.65 1038.81 1038.48 1037.68 1037.01 1036.08 1035.18 1034.35 1033.70 1033.17 1032.28 1031.42 1030.47 1029.32 1028.17 1026.93 1025.56 1024.04 1022.56 1020.71 1018.99 1017.45 1016.07 1014.60 1012.68 1011.90 1010.84 1011.26
1028.63 1029.97 1030.26 1030.40 1030.42 1030.81 1031.51 1032.18 1032.55 1032.74 1033.72 1034.85 1035.99 1037.38 1038.54 1039.58 1039.87 1039.59 1039.24 1038.31 1037.58 1036.52 1035.77 1035.11 1034.48 1033.92 1033.35 1032.52 1031.53 1030.39 1029.00 1027.76 1026.50 1024.94 1023.65 1021.84 1020.36 1018.87 1017.14 1015.93 1014.08 1012.61 1012.05 1011.60
1031.31 1032.15 1032.11 1032.22 1032.37 1032.63 1033.46 1033.99 1034.29 1034.76 1035.77 1036.75 1037.60 1038.96 1039.82 1040.43 1040.65 1039.90 1039.40 1038.60 1037.85 1036.95 1036.06 1035.48 1034.98 1034.33 1033.83 1033.18 1032.30 1030.98 1029.94 1028.74 1027.71 1025.94 1024.80 1023.25 1021.65 1019.89 1018.00 1016.37 1015.26 1013.50 1012.87 1012.26
1033.96 1034.18 1034.09 1034.35 1034.25 1034.36 1035.02 1035.49 1035.86 1036.49 1037.28 1038.11 1039.06 1039.88 1040.48 1040.62 1040.44 1040.26 1039.70 1038.93 1038.13 1037.26 1036.52 1035.89 1035.41 1034.88 1034.34 1033.57 1032.76 1031.86 1030.95 1029.69 1028.23 1027.25 1026.06 1024.50 1022.55 1020.92 1019.29 1017.53 1016.18 1014.90 1013.97 1013.06
1036.42 1036.75 1036.54 1036.40 1035.70 1035.87 1036.65 1036.98 1037.59 1038.08 1038.76 1039.96 1040.31 1040.67 1040.99 1041.29 1040.91 1040.57 1039.88 1039.28 1038.58 1037.54 1036.80 1036.29 1035.92 1035.44 1034.90 1034.27 1033.65 1032.69 1031.70 1030.46 1029.44 1028.51 1027.37 1025.83 1023.82 1022.21 1020.53 1018.88 1017.27 1016.21 1015.73 1013.62
1037.85 1038.66 1038.32 1038.21 1037.62 1037.83 1037.48 1037.76 1038.49 1039.31 1039.45 1039.95 1040.55 1040.98 1041.33 1041.40 1040.81 1040.45 1039.77 1039.44 1038.87 1038.05 1037.24 1036.62 1036.20 1035.69 1035.20 1034.50 1033.74 1033.17 1032.54 1031.50 1030.23 1029.25 1028.22 1026.71 1024.79 1023.61 1021.90 1020.22 1018.79 1017.32 1015.79 1015.35
1037.90 1039.19 1039.79 1039.68 1039.51 1038.74 1038.33 1038.78 1039.46 1040.51 1040.08 1040.06 1040.65 1040.97 1041.21 1041.03 1040.73 1040.20 1039.71 1039.19 1038.91 1038.13 1037.46 1036.78 1036.21 1035.75 1035.18 1034.56 1033.86 1033.29 1032.55 1031.74 1030.89 1029.95 1028.91 1027.63 1026.26 1024.87 1023.10 1021.49 1019.91 1018.41 1017.28 1016.59
1038.76 1039.43 1040.54 1040.52 1040.79 1039.56 1038.69 1039.23 1039.99 1040.72 1040.28 1039.19 1039.85 1040.45 1041.19 1041.54 1041.48 1040.27 1039.45 1038.74 1038.35 1037.98 1037.28 1036.75 1036.20 1035.80 1035.31 1034.55 1034.14 1033.70 1032.98 1032.07 1031.43 1030.61 1029.87 1028.82 1027.52 1026.09 1024.64 1023.07 1021.37 1020.18 1018.84 1017.82
1040.27 1040.99 1041.73 1041.65 1041.12 1039.61 1038.65 1039.24 1040.07 1040.47 1039.50 1038.63 1038.93 1039.57 1040.60 1040.78 1039.73 1038.95 1038.64 1038.39 1038.00 1037.43 1036.89 1036.35 1036.06 1035.76 1035.25 1034.64 1034.26 1033.97 1033.45 1033.08 1032.73 1031.58 1030.40 1029.29 1028.13 1026.91 1025.77 1024.31 1022.57 1021.40 1020.16 1018.95
1041.16 1042.07 1042.08 1041.63 1040.91 1039.27 1038.38 1039.57 1039.47 1038.15 1037.66 1037.55 1037.79 1038.00 1038.35 1038.40 1038.07 1038.06 1037.78 1037.60 1037.29 1037.00 1036.47 1035.94 1035.77 1035.47 1035.00 1034.63 1034.42 1034.11 1033.69 1033.33 1032.76 1032.37 1031.38 1030.23 1028.90 1027.75 1026.40 1024.95 1023.82 1022.52 1021.44 1020.40
1041.20 1040.70 1040.87 1040.55 1038.62 1037.47 1037.11 1036.71 1036.13 1036.23 1036.40 1036.43 1036.58 1036.45 1036.64 1036.87 1036.78 1036.74 1036.74 1036.59 1036.34 1036.15 1035.90 1035.44 1035.27 1035.10 1034.93 1034.51 1034.29 1034.24 1033.92 1033.56 1033.05 1032.46 1031.72 1031.05 1029.78 1028.35 1027.64 1026.55 1025.15 1023.58 1022.79 1022.23
1040.18 1040.14 1040.54 1039.91 1037.45 1036.85 1036.14 1035.69 1035.51 1035.45 1035.33 1035.10 1035.10 1035.24 1035.44 1035.50 1035.42 1035.50 1035.53 1035.42 1035.32 1035.20 1035.17 1034.79 1034.87 1034.82 1034.66 1034.46 1034.25 1034.21 1033.92 1033.86 1033.69 1033.18 1032.33 1031.32 1030.37 1029.12 1028.43 1027.24 1026.21 1025.00 1024.19 1023.44
1039.00 1039.62 1039.12 1038.26 1036.21 1035.74 1035.00 1035.10 1034.37 1034.22 1034.11 1034.12 1033.93 1033.90 1033.90 1034.12 1033.97 1034.14 1034.28 1034.26 1034.20 1034.13 1034.11 1034.18 1034.24 1034.26 1034.26 1034.18 1034.17 1034.21 1034.15 1033.90 1033.70 1033.46 1032.86 1032.13 1031.49 1030.69 1029.66 1028.81 1027.54 1026.24 1025.50 1024.41
1036.97 1036.11 1036.47 1035.49 1034.49 1034.52 1034.30 1033.67 1033.61 1033.67 1033.31 1033.02 1033.09 1032.91 1032.78 1032.92 1032.85 1032.99 1033.05 1033.12 1033.28 1033.36 1033.41 1033.58 1033.63 1033.68 1033.81 1033.99 1034.08 1034.09 1034.06 1034.10 1034.13 1034.01 1033.57 1033.05 1032.19 1031.42 1030.98 1030.08 1028.89 1027.75 1026.66 1025.49
Thickness
5536 5509 5489 5493 5491 5477 5462 5452 5451 5466 5468 5452 5414 5396 5386 5380 5382 5378 5382 5387 5393 5408 5420 5436 5453 5468 5483 5499 5515 5528 5540 5548 5561 5571 5593 5606 5608 5606 5605 5607 5608 5612 5613 5613
5497 5480 5487 5481 5465 5446 5427 5398 5405 5430 5437 5442 5389 5368 5357 5364 5357 5353 5355 5356 5360 5374 5390 5405 5421 5439 5454 5467 5485 5502 5511 5525 5537 5547 5562 5577 5598 5601 5600 5598 5598 5601 5603 5605
5471 5466 5468 5454 5427 5417 5406 5378 5387 5377 5405 5411 5399 5359 5347 5338 5337 5333 5331 5332 5342 5348 5358 5374 5390 5405 5422 5439 5456 5475 5487 5500 5516 5526 5543 5562 5586 5591 5589 5588 5590 5592 5594 5597
5447 5440 5432 5416 5400 5389 5374 5382 5377 5377 5359 5354 5399 5363 5302 5310 5310 5308 5304 5308 5314 5325 5336 5347 5364 5380 5395 5409 5427 5445 5459 5479 5491 5503 5522 5530 5544 5582 5588 5588 5584 5583 5585 5588
5405 5402 5399 5391 5380 5370 5353 5368 5360 5363 5355 5343 5367 5326 5257 5280 5270 5270 5271 5275 5285 5296 5307 5326 5337 5353 5366 5385 5403 5420 5439 5453 5466 5480 5496 5511 5532 5559 5575 5578 5574 5573 5575 5579
5391 5393 5384 5378 5363 5363 5361 5350 5350 5351 5335 5282 5330 5321 5224 5237 5229 5235 5241 5247 5254 5265 5281 5296 5314 5328 5342 5357 5372 5389 5405 5423 5438 5456 5471 5491 5505 5522 5555 5568 5566 5564 5565 5568
5373 5367 5362 5353 5332 5348 5343 5322 5301 5314 5314 5324 5313 5279 5223 5221 5216 5213 5214 5216 5226 5241 5253 5265 5281 5301 5317 5333 5348 5365 5379 5398 5417 5432 5449 5467 5486 5499 5526 5553 5562 5557 5555 5556
5330 5345 5337 5346 5321 5319 5333 5325 5306 5283 5322 5311 5275 5235 5211 5207 5206 5204 5205 5204 5209 5211 5222 5240 5255 5268 5282 5298 5321 5333 5350 5373 5392 5413 5430 5441 5461 5483 5502 5528 5546 5555 5556 5556
5288 5322 5333 5326 5331 5322 5323 5321 5321 5316 5302 5295 5205 5209 5209 5206 5196 5193 5191 5192 5192 5199 5208 5213 5225 5237 5251 5270 5292 5301 5319 5345 5363 5380 5401 5422 5440 5460 5484 5503 5527 5535 5544 5546
5290 5267 5315 5324 5322 5310 5299 5288 5287 5288 5247 5260 5215 5203 5213 5189 5179 5178 5175 5177 5178 5183 5188 5193 5201 5214 5228 5244 5264 5281 5299 5318 5336 5355 5375 5395 5414 5439 5457 5488 5509 5523 5526 5533
5290 5263 5296 5305 5273 5264 5275 5248 5244 5231 5237 5268 5264 5190 5160 5164 5162 5162 5158 5164 5169 5171 5176 5181 5186 5196 5208 5225 5241 5255 5275 5293 5313 5333 5353 5374 5395 5420 5446 5467 5481 5503 5513 5520
5282 5256 5261 5275 5258 5253 5243 5221 5182 5211 5226 5218 5216 5182 5149 5143 5147 5153 5145 5150 5154 5159 5164 5169 5175 5181 5190 5202 5217 5230 5250 5270 5287 5309 5329 5352 5374 5398 5420 5440 5458 5481 5493 5502
5267 5248 5240 5263 5256 5255 5228 5213 5207 5206 5196 5182 5200 5192 5153 5127 5120 5121 5122 5129 5133 5144 5150 5156 5162 5166 5175 5184 5198 5214 5231 5248 5266 5287 5307 5330 5352 5373 5393 5415 5438 5457 5475 5479
5257 5226 5232 5237 5228 5212 5191 5199 5194 5197 5183 5167 5172 5142 5120 5120 5119 5118 5110 5112 5122 5128 5138 5142 5147 5153 5157 5165 5175 5192 5210 5227 5244 5264 5282 5305 5325 5346 5368 5387 5412 5433 5447 5461
5227 5190 5214 5202 5185 5190 5178 5175 5175 5168 5155 5159 5140 5131 5100 5102 5108 5113 5110 5115 5123 5124 5129 5132 5136 5142 5147 5151 5160 5174 5189 5207 5222 5243 5258 5277 5297 5320 5344 5367 5386 5410 5425 5439
5195 5189 5191 5184 5180 5183 5149 5153 5150 5156 5145 5128 5115 5130 5100 5101 5094 5108 5106 5116 5119 5119 5121 5123 5126 5131 5136 5143 5150 5159 5170 5186 5206 5219 5234 5252 5274 5295 5317 5340 5361 5383 5400 5418
5155 5147 5154 5161 5187 5169 5127 5118 5137 5137 5119 5096 5093 5105 5082 5092 5106 5094 5098 5102 5109 5114 5115 5114 5115 5119 5124 5131 5137 5145 5156 5171 5183 5197 5212 5229 5251 5270 5291 5314 5337 5356 5370 5398
5146 5125 5142 5156 5149 5116 5144 5114 5116 5115 5113 5092 5095 5084 5081 5084 5086 5091 5087 5092 5097 5107 5109 5107 5107 5111 5116 5123 5131 5136 5143 5154 5168 5179 5193 5211 5233 5247 5267 5288 5309 5330 5353 5366
5150 5118 5130 5142 5133 5136 5134 5124 5107 5091 5107 5075 5089 5079 5075 5069 5064 5077 5086 5085 5086 5092 5099 5101 5103 5106 5111 5116 5123 5129 5138 5146 5156 5166 5178 5194 5210 5226 5245 5265 5285 5306 5326 5341
5159 5120 5134 5093 5114 5127 5133 5113 5080 5066 5097 5093 5089 5079 5062 5063 5061 5078 5078 5079 5083 5085 5090 5096 5100 5102 5104 5110 5114 5119 5127 5138 5144 5154 5163 5174 5190 5205 5222 5240 5260 5278 5296 5314
5136 5104 5118 5094 5075 5113 5110 5106 5078 5092 5116 5103 5095 5085 5068 5072 5077 5077 5067 5073 5075 5080 5085 5090 5092 5096 5101 5105 5108 5112 5117 5122 5127 5139 5152 5164 5176 5190 5204 5221 5240 5254 5270 5288
5143 5116 5111 5067 5070 5124 5122 5101 5106 5117 5089 5093 5090 5088 5084 5079 5078 5073 5078 5077 5078 5078 5081 5085 5086 5089 5096 5100 5103 5106 5111 5115 5122 5126 5137 5149 5163 5175 5190 5207 5222 5237 5250 5263
5141 5139 5125 5131 5137 5119 5113 5125 5114 5103 5108 5100 5093 5094 5089 5085 5081 5082 5080 5076 5076 5077 5077 5076 5078 5083 5087 5091 5096 5098 5104 5109 5115 5121 5129 5137 5149 5165 5172 5185 5201 5221 5231 5240
5123 5090 5111 5122 5129 5120 5122 5117 5111 5110 5109 5104 5104 5095 5090 5088 5083 5080 5077 5076 5075 5074 5074 5075 5073 5075 5079 5082 5087 5091 5097 5100 5104 5110 5118 5129 5139 5153 5160 5173 5185 5200 5210 5221
5135 5114 5107 5108 5133 5122 5120 5115 5117 5116 5112 5107 5104 5099 5096 5089 5088 5082 5078 5075 5075 5074 5073 5073 5072 5072 5074 5074 5076 5080 5085 5091 5097 5102 5108 5116 5124 5132 5143 5153 5166 5180 5190 5203
5136 5143 5138 5150 5143 5138 5131 5118 5113 5110 5111 5108 5100 5096 5094 5089 5087 5081 5077 5072 5070 5066 5067 5066 5066 5067 5065 5066 5067 5070 5073 5077 5081 5089 5097 5101 5111 5120 5125 5135 5148 5160 5172 5186